Temp
32 33 31 33 36 38 39 37 39 45 46 46 47 47 47 47 48 48 48 49 49 49 50 50 50 51 51
30 32 31 34 34 33 37 40 38 42 45 45 45 45 45 46 46 47 47 47 47 47 48 49 50 49 50
29 32 32 33 32 33 34 35 37 42 43 43 43 43 44 44 45 45 45 45 45 46 46 47 47 48 48
28 28 30 32 30 29 30 32 33 37 39 40 41 41 42 42 42 42 42 42 43 44 45 45 45 46 47
25 28 29 29 28 30 28 30 31 32 32 31 32 33 34 37 38 39 40 42 43 44 44 45 45 46 46
28 27 27 29 29 28 28 26 24 32 27 30 32 31 32 33 38 40 41 41 42 43 43 44 45 45 45
28 27 27 29 28 26 28 28 27 30 30 27 31 29 32 35 38 39 40 41 41 42 43 44 45 45 46
30 30 30 33 33 32 30 28 29 31 31 24 30 28 31 32 37 38 39 40 41 42 43 42 43 44 44
39 39 39 38 37 32 25 23 23 26 30 26 27 26 28 29 31 37 39 40 40 40 40 41 42 42 42
29 31 33 30 36 30 26 22 22 21 28 24 25 26 22 28 29 30 30 35 37 38 39 40 40 37 36
28 29 29 29 29 29 28 24 22 21 28 28 24 24 24 23 28 30 30 30 31 32 36 37 38 38 34
27 26 26 24 25 26 27 26 26 24 26 26 23 24 23 22 22 28 29 30 29 28 29 34 37 38 39
24 23 24 25 25 25 25 26 25 27 28 27 25 25 24 22 22 24 26 28 30 28 28 31 32 32 31
23 25 26 24 24 25 23 24 23 23 28 28 26 26 24 24 24 24 26 24 28 29 31 32 33 34 33
23 23 24 24 23 24 23 23 22 22 23 26 28 27 26 25 23 25 25 26 28 29 30 29 31 32 32
22 21 21 21 21 23 24 22 21 22 22 24 24 24 25 28 31 25 27 27 29 29 30 28 28 32 34
20 20 20 21 23 21 21 22 21 22 23 24 25 24 21 20 30 38 29 29 29 29 29 29 28 31 33
MSLP
1020.72 1020.37 1020.08 1019.64 1019.17 1018.72 1018.21 1017.78 1017.13 1016.49 1015.89 1015.17 1014.53 1014.08 1013.56 1013.05 1012.60 1012.03 1011.61 1011.11 1010.77 1010.33 1009.79 1009.44 1009.13 1008.80 1008.57
1020.51 1020.11 1019.72 1019.20 1018.77 1018.39 1017.77 1017.11 1016.63 1016.02 1015.34 1014.62 1014.01 1013.59 1013.06 1012.47 1011.82 1011.26 1010.63 1010.19 1009.90 1009.41 1009.00 1008.52 1008.10 1007.97 1007.63
1019.92 1019.56 1019.16 1018.78 1018.29 1017.73 1017.15 1016.51 1016.11 1015.44 1014.81 1014.05 1013.56 1012.93 1012.28 1011.72 1011.11 1010.50 1010.04 1009.68 1009.10 1008.54 1008.14 1007.74 1007.43 1007.04 1006.69
1019.69 1019.25 1018.96 1018.37 1017.90 1017.21 1016.29 1016.03 1015.30 1014.76 1014.19 1013.43 1012.92 1012.21 1011.74 1011.14 1010.59 1009.96 1009.45 1008.93 1008.29 1007.65 1007.13 1006.73 1006.41 1006.01 1005.62
1019.52 1018.98 1018.42 1017.68 1017.36 1016.80 1016.12 1015.31 1014.66 1014.11 1013.19 1012.86 1012.37 1011.61 1011.08 1010.33 1009.74 1009.12 1008.54 1007.73 1007.00 1006.41 1005.96 1005.50 1005.10 1004.74 1004.43
1018.92 1018.41 1017.91 1017.37 1016.88 1016.44 1015.74 1014.99 1013.54 1013.15 1012.77 1011.95 1011.51 1010.67 1010.10 1009.51 1008.81 1007.99 1007.21 1006.70 1005.89 1005.27 1004.82 1004.28 1003.81 1003.52 1003.25
1018.20 1017.93 1017.29 1016.76 1016.27 1015.72 1015.09 1014.48 1013.67 1012.77 1012.34 1010.97 1010.55 1009.71 1009.13 1008.43 1007.81 1006.92 1006.16 1005.52 1004.90 1004.11 1003.44 1002.89 1002.48 1002.19 1001.93
1017.36 1016.92 1016.43 1015.86 1015.47 1014.95 1014.29 1013.76 1013.00 1012.27 1011.79 1010.39 1009.80 1008.78 1008.03 1007.61 1006.77 1005.87 1005.09 1004.50 1003.87 1003.20 1002.57 1002.17 1001.74 1001.27 1000.97
1016.32 1015.98 1015.55 1015.14 1014.67 1014.37 1014.00 1013.63 1012.33 1011.56 1010.82 1010.28 1008.99 1008.12 1007.39 1006.24 1005.42 1004.68 1004.11 1003.58 1003.10 1002.50 1001.97 1001.42 1000.91 1000.40 999.94
1016.03 1015.60 1015.17 1014.85 1014.31 1014.17 1013.78 1013.38 1012.44 1010.88 1009.69 1009.67 1008.87 1008.34 1006.13 1004.93 1004.38 1004.08 1003.39 1002.88 1002.23 1001.53 1000.92 1000.39 999.95 999.71 999.24
1015.67 1015.07 1014.52 1014.15 1013.81 1013.44 1013.17 1012.89 1011.97 1011.05 1009.25 1009.36 1008.28 1007.75 1007.16 1004.85 1003.64 1003.13 1002.58 1001.60 1001.13 1000.46 1000.01 999.37 998.90 998.67 998.14
1015.34 1014.69 1014.22 1013.78 1013.26 1012.74 1012.15 1011.73 1011.05 1010.15 1008.89 1008.81 1007.82 1007.05 1005.97 1004.63 1003.09 1001.99 1001.31 1000.70 1000.17 999.44 998.93 998.28 997.69 997.12 996.70
1015.11 1014.54 1014.08 1013.29 1012.56 1011.94 1011.14 1010.54 1009.69 1008.53 1007.66 1007.20 1006.90 1005.96 1005.32 1004.09 1002.65 1001.40 1000.26 999.49 998.94 998.34 997.85 997.16 996.39 995.94 995.39
1014.98 1014.20 1013.50 1012.75 1011.96 1011.34 1010.66 1009.77 1008.92 1007.23 1006.20 1005.90 1005.47 1004.99 1003.99 1003.06 1002.07 1000.40 999.41 998.90 997.86 997.12 996.40 995.41 994.75 994.33 993.87
1014.69 1013.92 1013.09 1012.32 1011.42 1010.69 1010.05 1009.10 1008.32 1007.00 1005.62 1004.52 1003.96 1003.60 1002.84 1002.08 1000.73 999.17 998.02 997.21 996.40 995.65 995.18 994.19 993.12 992.57 992.22
1014.23 1013.59 1012.79 1012.00 1011.07 1010.00 1009.32 1008.64 1007.55 1006.30 1005.25 1004.02 1003.07 1002.05 1000.94 999.85 999.39 997.87 996.58 995.78 994.92 994.30 993.67 992.98 991.45 990.57 990.39
1013.89 1013.07 1012.27 1011.38 1010.45 1009.55 1008.62 1007.73 1006.58 1005.58 1004.33 1003.27 1002.19 1001.22 999.86 998.12 996.72 996.27 995.60 994.52 993.73 992.92 992.29 991.56 990.53 989.14 988.71
Wind_Speed
2 3 4 7 9 9 10 9 10 24 26 26 26 27 28 28 29 30 30 29 29 29 28 29 29 29 29
3 6 7 9 10 10 9 10 10 18 24 28 28 28 29 29 29 29 29 27 27 28 28 29 29 29 29
9 6 7 8 9 9 9 9 8 19 23 27 27 27 28 27 28 28 29 29 28 27 27 28 28 29 28
6 7 7 7 5 8 10 7 11 10 16 22 23 25 26 26 28 27 27 26 26 27 26 27 27 28 28
6 8 6 9 9 8 10 11 11 11 9 8 7 10 11 19 21 26 26 28 29 28 27 27 27 26 27
7 9 10 10 8 8 11 12 11 5 4 12 9 11 10 9 22 28 30 29 29 29 29 27 26 25 26
10 9 11 11 9 11 10 9 12 11 11 13 11 12 10 11 26 30 30 29 27 26 24 23 23 25 26
7 9 9 11 12 11 12 11 11 10 9 13 11 14 11 9 27 30 27 25 25 25 27 28 27 26 27
19 20 22 23 18 9 8 9 12 11 11 10 8 11 13 13 12 22 22 23 27 27 26 27 27 28 20
5 10 12 11 18 8 7 9 11 10 4 4 10 9 8 6 6 8 10 19 25 28 28 27 27 13 12
7 8 8 8 7 8 8 8 10 11 16 11 8 10 8 12 8 9 11 12 10 14 24 27 26 21 11
8 8 8 9 8 9 11 11 11 16 16 13 9 11 12 13 15 10 10 12 10 10 10 17 24 25 25
8 9 8 9 11 10 11 12 14 15 13 14 11 13 11 13 14 14 15 11 11 11 9 10 12 10 12
8 9 9 9 10 8 10 10 11 13 14 12 11 12 12 12 12 15 14 11 10 12 11 12 12 11 12
8 9 10 9 10 9 9 10 10 12 13 12 12 11 12 15 14 14 14 13 12 13 11 12 13 12 12
9 9 10 10 11 11 9 10 11 12 12 12 12 12 11 11 21 15 14 13 12 12 12 12 15 12 11
8 10 10 10 14 11 10 10 11 11 12 12 11 10 13 14 11 16 10 12 12 13 12 12 13 14 12
Wind_Direction
279 300 297 293 301 296 296 291 291 303 305 304 303 306 302 304 299 296 295 295 289 285 285 283 282 279 278
288 300 289 289 287 292 286 294 293 295 302 304 303 304 300 297 298 295 293 295 294 290 288 283 282 284 279
293 296 290 296 293 279 286 291 281 296 300 296 302 300 300 300 298 298 301 296 293 289 284 282 278 277 274
290 296 291 291 270 295 302 296 296 293 287 287 292 296 297 297 298 296 295 293 289 285 282 280 277 274 274
286 294 297 305 304 304 294 301 294 288 280 275 282 286 285 290 290 292 289 289 290 288 284 281 277 276 275
292 298 298 300 302 296 295 298 299 268 275 292 289 288 286 281 285 290 294 293 288 290 286 278 274 274 273
295 286 289 292 290 286 283 289 291 294 293 289 294 285 283 283 289 291 292 293 292 290 284 278 281 286 287
266 279 269 279 288 297 297 297 288 289 285 285 291 285 289 282 286 289 288 289 289 292 296 296 288 285 283
297 299 304 305 304 307 300 304 296 296 293 287 282 288 290 282 271 275 284 290 295 292 291 289 287 283 282
279 293 295 282 298 291 283 285 287 298 272 286 297 303 296 249 271 282 278 276 284 287 288 287 286 281 275
299 298 298 294 292 287 277 263 281 273 280 293 294 288 272 295 279 284 283 283 276 278 281 281 282 276 270
303 301 302 297 289 287 282 274 263 264 278 277 274 279 282 283 290 287 283 284 278 273 272 273 279 279 278
302 297 290 287 293 291 289 282 275 275 274 270 263 273 270 275 282 285 289 291 279 272 268 268 275 270 274
295 296 296 297 297 297 294 296 290 291 291 276 265 262 271 268 272 279 281 276 276 275 273 274 273 267 263
296 299 298 300 297 301 292 290 284 296 298 299 289 266 258 265 276 270 273 275 274 275 275 274 270 265 264
300 295 295 298 298 296 295 291 290 294 293 294 295 295 283 257 238 265 276 273 276 276 273 274 280 276 263
294 293 294 290 303 297 296 294 294 292 289 289 289 291 297 295 292 263 273 277 281 279 273 267 267 274 274